When you browse on this site, cookies collect data to enhance your experience and personalize the content and advertising you see.
Visit our Privacy Policy to learn more. By continuing to use the site, you agree to this use of cookies and data.
  • In Spain
  • List of Countries
  • For 7 days
  • Water Temperature
  • Weather Map
  • Weather Widgets
  • user-avatar
    Login

    Hourly Weather Mulhule

    Today, 21 October, Monday

    Time Temperature Precipitation Wind Pressure Humidity
    00:00 +30°C° 0 mm 7 mps 758 mmHg 71%
    01:00 +30°C° 0 mm 7 mps 757 mmHg 72%
    02:00 +30°C° 0 mm 7 mps 757 mmHg 72%
    03:00 +30°C° 0 mm 7 mps 757 mmHg 73%
    04:00 +30°C° 0 mm 7 mps 757 mmHg 74%
    05:00 +31°C° 0 mm 8 mps 758 mmHg 76%
    06:00 +29°C° 0 mm 8 mps 758 mmHg 77%
    07:00 +31°C° 0 mm 8 mps 759 mmHg 72%
    08:00 +32°C° 0 mm 9 mps 759 mmHg 66%
    09:00 +33°C° 0 mm 9 mps 759 mmHg 61%
    10:00 +34°C° 0 mm 9 mps 759 mmHg 57%
    11:00 +35°C° 0 mm 9 mps 758 mmHg 53%
    12:00 +35°C° 0 mm 9 mps 758 mmHg 49%
    13:00 +37°C° 0 mm 9 mps 757 mmHg 46%
    14:00 +37°C° 0 mm 9 mps 756 mmHg 44%
    15:00 +37°C° 0 mm 9 mps 755 mmHg 41%
    16:00 +35°C° 0 mm 8 mps 756 mmHg 45%
    17:00 +34°C° 0 mm 8 mps 756 mmHg 48%
    18:00 +33°C° 0 mm 8 mps 756 mmHg 52%
    19:00 +33°C° 0 mm 8 mps 756 mmHg 55%
    20:00 +32°C° 0 mm 7 mps 757 mmHg 57%
    21:00 +32°C° 0 mm 7 mps 757 mmHg 60%
    22:00 +32°C° 0 mm 7 mps 757 mmHg 61%
    23:00 +31°C° 0 mm 8 mps 757 mmHg 63%

    Tomorrow, 22 October, Tuesday

    Time Temperature Precipitation Wind Pressure Humidity
    00:00 +31°C° 0 mm 8 mps 757 mmHg 64%
    01:00 +31°C° 0 mm 8 mps 757 mmHg 64%
    02:00 +30°C° 0 mm 7 mps 756 mmHg 65%
    03:00 +29°C° 0 mm 7 mps 756 mmHg 65%
    04:00 +29°C° 0 mm 7 mps 756 mmHg 64%
    05:00 +29°C° 0 mm 7 mps 757 mmHg 63%
    06:00 +29°C° 0 mm 6 mps 757 mmHg 61%
    07:00 +32°C° 0 mm 7 mps 758 mmHg 56%
    08:00 +33°C° 0 mm 8 mps 758 mmHg 50%
    09:00 +34°C° 0 mm 8 mps 759 mmHg 45%
    10:00 +35°C° 0 mm 8 mps 758 mmHg 43%
    11:00 +37°C° 0 mm 9 mps 758 mmHg 41%
    12:00 +37°C° 0 mm 9 mps 757 mmHg 39%
    13:00 +37°C° 0 mm 9 mps 756 mmHg 39%
    14:00 +37°C° 0 mm 9 mps 756 mmHg 39%
    15:00 +37°C° 0 mm 9 mps 755 mmHg 38%
    16:00 +35°C° 0 mm 9 mps 755 mmHg 42%
    17:00 +34°C° 0 mm 8 mps 755 mmHg 45%
    18:00 +33°C° 0 mm 8 mps 755 mmHg 48%
    19:00 +33°C° 0 mm 7 mps 756 mmHg 51%
    20:00 +32°C° 0 mm 7 mps 756 mmHg 54%
    21:00 +32°C° 0 mm 6 mps 757 mmHg 57%
    22:00 +30°C° 0 mm 6 mps 757 mmHg 58%
    23:00 +30°C° 0 mm 6 mps 757 mmHg 60%

    Day after tomorrow, 23 October, Wednesday

    Time Temperature Precipitation Wind Pressure Humidity
    00:00 +30°C° 0 mm 6 mps 757 mmHg 61%
    01:00 +30°C° 0 mm 6 mps 756 mmHg 62%
    02:00 +29°C° 0 mm 6 mps 756 mmHg 62%
    03:00 +29°C° 0 mm 6 mps 756 mmHg 62%
    04:00 +29°C° 0 mm 6 mps 756 mmHg 61%
    05:00 +29°C° 0 mm 6 mps 757 mmHg 60%
    06:00 +29°C° 0 mm 6 mps 757 mmHg 59%
    07:00 +30°C° 0 mm 6 mps 758 mmHg 52%
    08:00 +33°C° 0 mm 7 mps 758 mmHg 45%
    09:00 +35°C° 0 mm 8 mps 758 mmHg 38%
    10:00 +37°C° 0 mm 8 mps 758 mmHg 36%
    11:00 +37°C° 0 mm 9 mps 757 mmHg 34%
    12:00 +38°C° 0 mm 9 mps 757 mmHg 33%
    13:00 +38°C° 0 mm 9 mps 756 mmHg 33%
    14:00 +38°C° 0 mm 9 mps 755 mmHg 33%
    15:00 +37°C° 0 mm 9 mps 755 mmHg 32%
    16:00 +35°C° 0 mm 9 mps 755 mmHg 36%
    17:00 +34°C° 0 mm 8 mps 755 mmHg 39%
    18:00 +33°C° 0 mm 8 mps 756 mmHg 42%
    19:00 +33°C° 0 mm 7 mps 756 mmHg 45%
    20:00 +32°C° 0 mm 7 mps 757 mmHg 48%
    21:00 +32°C° 0 mm 7 mps 757 mmHg 51%
    22:00 +32°C° 0 mm 7 mps 757 mmHg 53%
    23:00 +30°C° 0 mm 7 mps 757 mmHg 56%

    24 October, Thursday

    Time Temperature Precipitation Wind Pressure Humidity
    00:00 +30°C° 0 mm 7 mps 757 mmHg 58%
    01:00 +30°C° 0 mm 7 mps 757 mmHg 60%
    02:00 +29°C° 0 mm 7 mps 757 mmHg 61%
    03:00 +29°C° 0 mm 6 mps 757 mmHg 62%
    04:00 +29°C° 0 mm 6 mps 757 mmHg 62%
    05:00 +29°C° 0 mm 6 mps 757 mmHg 63%
    06:00 +29°C° 0 mm 6 mps 758 mmHg 63%
    07:00 +30°C° 0 mm 7 mps 758 mmHg 57%
    08:00 +33°C° 0 mm 8 mps 758 mmHg 50%
    09:00 +34°C° 0 mm 9 mps 759 mmHg 43%
    10:00 +35°C° 0 mm 9 mps 758 mmHg 40%
    11:00 +37°C° 0 mm 9 mps 758 mmHg 37%
    12:00 +38°C° 0 mm 10 mps 757 mmHg 34%
    13:00 +38°C° 0 mm 10 mps 757 mmHg 34%
    14:00 +37°C° 0 mm 10 mps 756 mmHg 33%
    15:00 +37°C° 0 mm 9 mps 755 mmHg 33%
    16:00 +35°C° 0 mm 9 mps 756 mmHg 37%
    17:00 +34°C° 0 mm 9 mps 756 mmHg 41%
    18:00 +33°C° 0 mm 8 mps 756 mmHg 44%
    19:00 +32°C° 0 mm 8 mps 757 mmHg 48%
    20:00 +32°C° 0 mm 8 mps 757 mmHg 52%
    21:00 +30°C° 0 mm 7 mps 758 mmHg 55%
    22:00 +30°C° 0 mm 7 mps 758 mmHg 57%
    23:00 +31°C° 0 mm 8 mps 757 mmHg 59%

    25 October, Friday

    Time Temperature Precipitation Wind Pressure Humidity
    00:00 +31°C° 0 mm 8 mps 757 mmHg 60%
    01:00 +29°C° 0 mm 8 mps 757 mmHg 61%
    02:00 +29°C° 0 mm 8 mps 757 mmHg 61%
    03:00 +29°C° 0 mm 8 mps 757 mmHg 61%
    04:00 +29°C° 0 mm 7 mps 757 mmHg 62%
    05:00 +29°C° 0 mm 7 mps 757 mmHg 62%
    06:00 +29°C° 0 mm 7 mps 758 mmHg 62%
    07:00 +31°C° 0 mm 8 mps 758 mmHg 55%
    08:00 +33°C° 0 mm 8 mps 758 mmHg 48%
    09:00 +34°C° 0 mm 9 mps 759 mmHg 41%
    10:00 +35°C° 0 mm 9 mps 758 mmHg 38%
    11:00 +37°C° 0 mm 9 mps 757 mmHg 34%
    12:00 +38°C° 0 mm 9 mps 757 mmHg 30%
    13:00 +38°C° 0 mm 9 mps 756 mmHg 30%
    14:00 +38°C° 0 mm 9 mps 756 mmHg 30%
    15:00 +38°C° 0 mm 9 mps 755 mmHg 29%
    16:00 +35°C° 0 mm 9 mps 755 mmHg 33%
    17:00 +34°C° 0 mm 8 mps 756 mmHg 37%
    18:00 +33°C° 0 mm 8 mps 756 mmHg 41%
    19:00 +32°C° 0 mm 8 mps 756 mmHg 46%
    20:00 +32°C° 0 mm 8 mps 757 mmHg 50%
    21:00 +31°C° 0 mm 8 mps 757 mmHg 55%
    22:00 +31°C° 0 mm 8 mps 757 mmHg 57%
    23:00 +31°C° 0 mm 8 mps 757 mmHg 59%

    26 October, Saturday

    Time Temperature Precipitation Wind Pressure Humidity
    00:00 +31°C° 0 mm 9 mps 757 mmHg 62%
    01:00 +29°C° 0 mm 8 mps 757 mmHg 63%
    02:00 +29°C° 0 mm 8 mps 756 mmHg 65%
    03:00 +29°C° 0 mm 8 mps 756 mmHg 66%
    04:00 +28°C° 0 mm 7 mps 757 mmHg 67%
    05:00 +28°C° 0 mm 7 mps 757 mmHg 67%
    06:00 +28°C° 0 mm 7 mps 757 mmHg 68%
    07:00 +30°C° 0 mm 7 mps 758 mmHg 60%
    08:00 +32°C° 0 mm 8 mps 758 mmHg 52%
    09:00 +34°C° 0 mm 8 mps 758 mmHg 44%
    10:00 +35°C° 0 mm 8 mps 758 mmHg 41%
    11:00 +37°C° 0 mm 8 mps 757 mmHg 38%
    12:00 +38°C° 0 mm 9 mps 757 mmHg 34%
    13:00 +37°C° 0 mm 9 mps 756 mmHg 34%
    14:00 +37°C° 0 mm 9 mps 755 mmHg 33%
    15:00 +37°C° 0 mm 9 mps 755 mmHg 33%
    16:00 +35°C° 0 mm 8 mps 755 mmHg 36%
    17:00 +34°C° 0 mm 8 mps 755 mmHg 40%
    18:00 +33°C° 0 mm 7 mps 755 mmHg 43%
    19:00 +32°C° 0 mm 7 mps 756 mmHg 46%
    20:00 +32°C° 0 mm 6 mps 756 mmHg 49%
    21:00 +30°C° 0 mm 6 mps 757 mmHg 52%
    22:00 +30°C° 0 mm 6 mps 757 mmHg 55%
    23:00 +30°C° 0 mm 6 mps 756 mmHg 58%

    27 October, Sunday

    Time Temperature Precipitation Wind Pressure Humidity
    00:00 +29°C° 0 mm 5 mps 756 mmHg 62%
    01:00 +29°C° 0 mm 5 mps 756 mmHg 63%
    02:00 +29°C° 0 mm 5 mps 756 mmHg 65%
    03:00 +28°C° 0 mm 5 mps 756 mmHg 66%
    04:00 +28°C° 0 mm 5 mps 756 mmHg 65%
    05:00 +28°C° 0 mm 5 mps 756 mmHg 64%
    06:00 +28°C° 0 mm 5 mps 757 mmHg 63%
    07:00 +30°C° 0 mm 6 mps 757 mmHg 53%
    08:00 +33°C° 0 mm 6 mps 758 mmHg 44%
    09:00 +35°C° 0 mm 7 mps 758 mmHg 34%
    10:00 +37°C° 0 mm 8 mps 758 mmHg 34%
    11:00 +37°C° 0 mm 8 mps 757 mmHg 33%
    12:00 +38°C° 0 mm 9 mps 757 mmHg 33%
    13:00 +38°C° 0 mm 9 mps 756 mmHg 33%
    14:00 +38°C° 0 mm 9 mps 755 mmHg 32%
    15:00 +38°C° 0 mm 9 mps 755 mmHg 32%
    16:00 +35°C° 0 mm 8 mps 755 mmHg 36%
    17:00 +34°C° 0 mm 8 mps 755 mmHg 40%
    18:00 +33°C° 0 mm 8 mps 756 mmHg 44%
    19:00 +32°C° 0 mm 7 mps 756 mmHg 47%
    20:00 +32°C° 0 mm 7 mps 756 mmHg 49%
    21:00 +30°C° 0 mm 6 mps 757 mmHg 52%
    22:00 +30°C° 0 mm 7 mps 757 mmHg 55%
    23:00 +30°C° 0 mm 7 mps 757 mmHg 58%
    Show more